Location: Atherton
(17.2661°S, 145.4859°E)
Time: 23:23:21
(UTC+10:00)

Transit 2A - Pass Details

Date: 24 June 2025
Orbit: 598 x 948 km, 66.7° (Epoch: 19 July)

Event Time Altitude Azimuth Distance (km) Brightness Sun altitude
Rises 19:14:14 0° 174° (S) 3,379 - -18.7°
Reaches altitude 10° 19:18:28 10° 144° (SE) 2,346 - -19.7°
Maximum altitude 19:20:33 12° 121° (ESE) 2,146 - -20.2°
Drops below altitude 10° 19:22:32 10° 98° (E) 2,245 - -20.6°
Sets 19:26:20 0° 68° (ENE) 3,069 - -21.5°
